Weather History for Mount Pleasant, SC

Change the Weather History Date:

Sunday, May 26, 2013

  Actual Average (KCHS) Record (KCHS)
Temperature  
Mean Temperature 68 °F 75 °F  
Max Temperature 80 °F 85 °F 98 °F (1953)
Min Temperature 55 °F 65 °F 50 °F (1979)
Degree Days  
Heating Degree Days 0 0  
Month to date heating degree days 8  
Since 1 July heating degree days 1971  
Cooling Degree Days 2 10  
Month to date cooling degree days 191  
Year to date cooling degree days 309  
Growing Degree Days 18 (Base 50)    
Moisture  
Dew Point 58 °F    
Average Humidity 73    
Maximum Humidity 100    
Minimum Humidity 39    
Precipitation  
Precipitation 0.00 in 0.11 in 1.87 in (1946)
Month to date precipitation 2.44  
Year to date precipitation 15.73  
Sea Level Pressure  
Sea Level Pressure 30.21 in    
Wind  
Wind Speed 3 mph (SW)    
Max Wind Speed 15 mph    
Max Gust Speed 20 mph    
Visibility 9 miles    
Events      
T = Trace of Precipitation, MM = Missing Value Source: NWS Daily Summary

Daily Weather History Graph

Daily Weather History Graph

Search for Another Location

Airport:

Trip Planner

Search our weather history database for the weather conditions in past years. The results will help you decide how hot, cold, wet, or windy it might be!

Date:

Astronomy

May. 26, 2013 Rise Set
Actual Time 6:13 AM EDT 8:19 PM EDT
Civil Twilight 5:45 AM EDT 8:47 PM EDT
Nautical Twilight 5:11 AM EDT 9:21 PM EDT
Astronomical Twilight 4:35 AM EDT 9:57 PM EDT
Moon 10:06 PM EDT (5/26) 7:40 AM EDT (5/26)
Length of Visible Light 15h 01m
Length of Day
14h 05m
Waning Gibbous, 97% of the Moon is Illuminated
May 26
Waning Gibbous
May 31
Last Quarter
Jun 8
New
Jun 16
First Quarter
Jun 23
Full

Hourly Weather History & Observations

Time (EDT) Temp. Heat Index Dew Point Humidity Pressure Visibility Wind Dir Wind Speed Gust Speed Precip Events Conditions
12:15 AM 57.2 °F - 55.4 °F 94% 30.22 in 10.0 mi Calm Calm - N/A   Clear
12:35 AM 57.2 °F - 55.4 °F 94% 30.21 in 10.0 mi Calm Calm - N/A   Clear
12:55 AM 57.2 °F - 55.4 °F 94% 30.20 in 10.0 mi Calm Calm - N/A   Clear
1:15 AM 57.2 °F - 55.4 °F 94% 30.20 in 10.0 mi Calm Calm - N/A   Clear
1:35 AM 57.2 °F - 55.4 °F 94% 30.19 in 10.0 mi Calm Calm - N/A   Clear
1:55 AM 57.2 °F - 55.4 °F 94% 30.19 in 10.0 mi Calm Calm - N/A   Clear
2:15 AM 57.2 °F - 55.4 °F 94% 30.18 in 10.0 mi Calm Calm - N/A   Clear
2:35 AM 57.2 °F - 55.4 °F 94% 30.18 in 10.0 mi Calm Calm - N/A   Clear
2:55 AM 55.4 °F - 55.4 °F 100% 30.18 in 10.0 mi Calm Calm - N/A   Clear
3:15 AM 55.4 °F - 55.4 °F 100% 30.18 in 10.0 mi Calm Calm - N/A   Clear
3:35 AM 55.4 °F - 55.4 °F 100% 30.18 in 10.0 mi Calm Calm - N/A   Clear
3:55 AM 55.4 °F - 55.4 °F 100% 30.18 in 9.0 mi Calm Calm - N/A   Clear
4:15 AM 55.4 °F - 55.4 °F 100% 30.18 in 8.0 mi Calm Calm - N/A   Clear
4:35 AM 55.4 °F - 55.4 °F 100% 30.19 in 7.0 mi Calm Calm - N/A   Clear
4:55 AM 55.4 °F - 55.4 °F 100% 30.19 in 7.0 mi Calm Calm - N/A   Clear
5:15 AM 55.4 °F - 55.4 °F 100% 30.20 in 7.0 mi Calm Calm - N/A   Clear
5:35 AM 55.4 °F - 55.4 °F 100% 30.20 in 7.0 mi Calm Calm - N/A   Partly Cloudy
5:55 AM 55.4 °F - 55.4 °F 100% 30.20 in 8.0 mi Calm Calm - N/A   Partly Cloudy
6:15 AM 55.4 °F - 55.4 °F 100% 30.21 in 7.0 mi Calm Calm - N/A   Clear
6:35 AM 55.4 °F - 55.4 °F 100% 30.21 in 5.0 mi Calm Calm - N/A   Clear
6:55 AM 55.4 °F - 55.4 °F 100% 30.22 in 5.0 mi Calm Calm - N/A   Clear
7:15 AM 55.4 °F - 55.4 °F 100% 30.22 in 6.0 mi Calm Calm - N/A   Clear
7:35 AM 55.4 °F - 55.4 °F 100% 30.23 in 5.0 mi Calm Calm - N/A   Clear
7:55 AM 57.2 °F - 57.2 °F 100% 30.24 in 1.0 mi Calm Calm - N/A   Clear
8:15 AM 62.6 °F - 60.8 °F 94% 30.24 in 9.0 mi Calm Calm - N/A   Clear
8:35 AM 66.2 °F - 59.0 °F 78% 30.24 in 10.0 mi Calm Calm - N/A   Clear
8:55 AM 68.0 °F - 60.8 °F 78% 30.25 in 10.0 mi WNW 4.6 mph - N/A   Clear
9:15 AM 69.8 °F - 60.8 °F 73% 30.27 in 10.0 mi WNW 8.1 mph - N/A   Clear
9:35 AM 69.8 °F - 57.2 °F 64% 30.27 in 10.0 mi WNW 8.1 mph - N/A   Clear
9:55 AM 71.6 °F - 55.4 °F 57% 30.27 in 8.0 mi West 6.9 mph - N/A   Clear
10:15 AM 73.4 °F - 57.2 °F 57% 30.27 in 10.0 mi NW 6.9 mph - N/A   Clear
10:35 AM 73.4 °F - 55.4 °F 53% 30.27 in 10.0 mi West 8.1 mph - N/A   Clear
10:55 AM 75.2 °F - 57.2 °F 53% 30.27 in 10.0 mi NW 9.2 mph - N/A   Clear
11:15 AM 75.2 °F - 57.2 °F 53% 30.27 in 10.0 mi NW 9.2 mph - N/A   Clear
11:35 AM 75.2 °F - 55.4 °F 50% 30.26 in 8.0 mi West 6.9 mph - N/A   Clear
11:55 AM 77.0 °F - 55.4 °F 47% 30.26 in 10.0 mi WNW 6.9 mph - N/A   Clear
12:15 PM 77.0 °F - 57.2 °F 50% 30.25 in 10.0 mi WNW 6.9 mph - N/A   Clear
12:35 PM 78.8 °F - 55.4 °F 44% 30.25 in 10.0 mi Calm Calm - N/A   Clear
1:15 PM 78.8 °F - 55.4 °F 44% 30.23 in 10.0 mi Calm Calm - N/A   Partly Cloudy
1:35 PM 78.8 °F - 55.4 °F 44% 30.23 in 10.0 mi West 5.8 mph - N/A   Clear
1:55 PM 80.6 °F 80.5 °F 55.4 °F 42% 30.22 in 10.0 mi South 8.1 mph - N/A   Clear
2:15 PM 80.6 °F 80.3 °F 53.6 °F 39% 30.22 in 10.0 mi Calm Calm - N/A   Clear
2:35 PM 80.6 °F 81.5 °F 60.8 °F 51% 30.21 in 10.0 mi South 11.5 mph - N/A   Clear
2:55 PM 80.6 °F 81.5 °F 60.8 °F 51% 30.20 in 10.0 mi South 13.8 mph - N/A   Clear
3:15 PM 78.8 °F - 60.8 °F 54% 30.20 in 10.0 mi South 10.4 mph 16.1 mph N/A   Clear
3:35 PM 80.6 °F 81.5 °F 60.8 °F 51% 30.20 in 10.0 mi South 11.5 mph - N/A   Clear
3:55 PM 80.6 °F 81.5 °F 60.8 °F 51% 30.19 in 10.0 mi South 12.7 mph 16.1 mph N/A   Clear
4:15 PM 78.8 °F - 62.6 °F 57% 30.18 in 10.0 mi SSE 13.8 mph - N/A   Clear
4:35 PM 78.8 °F - 60.8 °F 54% 30.18 in 10.0 mi South 12.7 mph - N/A   Clear
4:55 PM 78.8 °F - 57.2 °F 47% 30.17 in 10.0 mi South 15.0 mph 19.6 mph N/A   Clear
5:15 PM 78.8 °F - 57.2 °F 47% 30.17 in 10.0 mi South 12.7 mph - N/A   Clear
5:35 PM 78.8 °F - 55.4 °F 44% 30.17 in 10.0 mi South 11.5 mph 16.1 mph N/A   Clear
5:55 PM 78.8 °F - 57.2 °F 47% 30.18 in 10.0 mi South 11.5 mph 17.3 mph N/A   Clear
6:15 PM 78.8 °F - 57.2 °F 47% 30.18 in 10.0 mi South 9.2 mph - N/A   Clear
6:35 PM 78.8 °F - 55.4 °F 44% 30.17 in 10.0 mi South 12.7 mph 16.1 mph N/A   Clear
6:55 PM 78.8 °F - 55.4 °F 44% 30.18 in 10.0 mi South 10.4 mph - N/A   Clear
7:15 PM 77.0 °F - 57.2 °F 50% 30.18 in 10.0 mi South 8.1 mph - N/A   Clear
7:35 PM 75.2 °F - 57.2 °F 53% 30.18 in 10.0 mi SSW 9.2 mph - N/A   Clear
7:55 PM 75.2 °F - 59.0 °F 57% 30.18 in 10.0 mi South 9.2 mph - N/A   Clear
8:15 PM 73.4 °F - 59.0 °F 61% 30.18 in 10.0 mi South 6.9 mph - N/A   Clear
8:35 PM 71.6 °F - 60.8 °F 69% 30.18 in 10.0 mi South 5.8 mph - N/A   Clear
8:55 PM 69.8 °F - 60.8 °F 73% 30.19 in 10.0 mi Calm Calm - N/A   Clear
9:15 PM 69.8 °F - 60.8 °F 73% 30.19 in 10.0 mi Calm Calm - N/A   Clear
9:35 PM 68.0 °F - 60.8 °F 78% 30.19 in 10.0 mi Calm Calm - N/A   Clear
9:55 PM 66.2 °F - 60.8 °F 83% 30.20 in 10.0 mi Calm Calm - N/A   Clear
10:15 PM 66.2 °F - 60.8 °F 83% 30.21 in 10.0 mi Calm Calm - N/A   Clear
10:35 PM 64.4 °F - 60.8 °F 88% 30.21 in 10.0 mi Calm Calm - N/A   Clear
10:55 PM 64.4 °F - 62.6 °F 94% 30.22 in 10.0 mi Calm Calm - N/A   Clear
11:15 PM 64.4 °F - 62.6 °F 94% 30.21 in 10.0 mi Calm Calm - N/A   Clear
11:35 PM 62.6 °F - 60.8 °F 94% 30.22 in 10.0 mi Calm Calm - N/A   Clear
11:55 PM 62.6 °F - 60.8 °F 94% 30.22 in 10.0 mi Calm Calm - N/A   Clear